Regional Weather Roundup
Issued by NWS

Home | Current Version | Previous Version | Text Only | Print | Product List | Glossary Off
Versions: 1 2 3 4 5 6 7 8 9 10 11 12 13 14 15 16 17 18 19 20 21 22 23 24 25 26 27 28 29 30 31 32 33 34 35 36 37 38 39 40 41 42 43 44 45 46 47 48 49 50

000
ASUS44 KMEG 240110
RWRTN
TENNESSEE HOURLY STATE WEATHER ROUNDUP
NATIONAL WEATHER SERVICE MEMPHIS TN
700 PM CST MON JAN 23 2017

TNZ002-004-019-021-049-052-054-088>092-240200-
WEST TENNESSEE

CITY           SKY/WX    TMP DP  RH WIND       PRES   REMARKS
MEMPHIS INTL   MOCLDY    48  39  71 CALM      29.85S
NWS MEMPHIS      N/A     47 N/A N/A MISG        N/A
JACKSON        PTCLDY    45  38  76 NW6       29.85R
DYERSBURG      MOCLDY    45  36  70 N3        29.86R
UNION CITY     MOCLDY    43  37  81 CALM      29.84R
PARIS          CLOUDY    41  36  81 CALM      29.83R
HUNTINGDON     CLOUDY    45  37  76 NW6G14    29.83R
$$

TNZ008-025-027-028-033-062-065-066-240200-
NORTH MIDDLE TENNESSEE

CITY           SKY/WX    TMP DP  RH WIND       PRES   REMARKS
NASHVILLE      CLOUDY    45  36  70 N14       29.78R
PORTLAND       CLOUDY    41  37  87 NW8G14    29.77S
CLARKSVILLE    CLOUDY    42  34  73 NW12      29.82R
SMYRNA         CLOUDY    45  38  76 NW12      29.78R
GALLATIN       CLOUDY    43  37  81 NW13G23   29.80S
CROSSVILLE     CLOUDY    40  39  97 NW12      29.70R FOG     WCI  33
$$

TNZ061-075-076-078-094-096-097-240200-
SOUTH MIDDLE TENNESSEE

CITY           SKY/WX    TMP DP  RH WIND       PRES   REMARKS
TULLAHOMA      CLOUDY    45  39  81 N7        29.75R
WINCHESTER     CLOUDY    45  41  87 N5        29.74R
MCMINNVILLE    CLOUDY    43  39  87 NW8         N/A
COLUMBIA       CLOUDY    46  41  81 NW8       29.77R
SHELBYVILLE    CLOUDY    46  41  81 N7        29.76S
$$

TNZ017-018-042-046-047-240200-
NORTHEAST TENNESSEE

CITY           SKY/WX    TMP DP  RH WIND       PRES   REMARKS
TRI CITIES     CLOUDY    49  45  86 W12       29.52R
ELIZABETHTON   DRIZZLE   50  46  87 W12       29.50R
$$

TNZ012-013-036-069-073-074-240200-
CENTRAL EAST TENNESSEE

CITY           SKY/WX    TMP DP  RH WIND       PRES   REMARKS
KNOXVILLE      CLOUDY    49  43  80 W16       29.64R
OAK RIDGE      LGT RAIN  48  45  89 W5        29.67R FOG
GATLINBURG     CLOUDY    48  43  81 W5        29.62R
MORRISTOWN     CLOUDY    48  45  87 NW10G16   29.59R
JACKSBORO      CLOUDY    46  45  93 VRB7G14   29.67R FOG
$$

TNZ083-085-099-240200-
SOUTHEAST TENNESSEE

CITY           SKY/WX    TMP DP  RH WIND       PRES   REMARKS
CHATTANOOGA    CLOUDY    48  40  73 NW12G21   29.73R
$$

SKY/WX REPORTED AS FAIR MEANS FEW OR NO CLOUDS BELOW
12 THOUSAND FEET.





USA.gov is the U.S. government's official web portal to all federal, state and local government web resources and services.